{"data":{"norad_id":62840,"intl_designator":"2025-019M","name":"STARLINK-11551 [DTC]","alt_names":[],"object_type":"PAYLOAD","status":"ACTIVE","operator":null,"country":"US","launch_date":"2025-01-27","launch_site_code":"AFETR","launch_vehicle":null,"mission":null,"orbit_class":"UNKNOWN","rcs_meters":null,"size_class":null,"mass_kg":null,"dimensions":null,"purposes":["comms"],"wikipedia_slug":null,"has_3d_model":false,"image_url":null,"decayed_at":null,"tle_current":{"epoch":"2026-05-25T04:39:13.276224Z","epoch_age_seconds":51451,"freshness":"FRESH","line1":"1 62840U 25019M   26145.19390366  .00196359  00000+0  14953-2 0  9998","line2":"2 62840  43.0012 204.7705 0002088 305.5643  54.5030 15.70880070 75916","mean_motion":15.7088007,"eccentricity":0.0002088,"inclination_deg":43.0012,"raan_deg":204.7705,"arg_perigee_deg":305.5643,"mean_anomaly_deg":54.503,"bstar":0.0014953,"rev_number":7591,"period_min":91.668360144132,"perigee_km":354.97436918221,"apogee_km":357.78670370543,"semimajor_km":6734.5175364438,"source":"CELESTRAK","updated_at":"2026-05-25T13:38:19.780381Z"}}}